When you browse on this site, cookies collect data to enhance your experience and personalize the content and advertising you see.
Visit our Privacy Policy to learn more. By continuing to use the site, you agree to this use of cookies and data.
  • Em Portugal
  • Lista de países
  • Para 7 dias
  • Temperatura da água
  • Mapas de satélite
  • Mapa do tempo
  • Widgets de tempo
  • user-avatar
    Iniciar Sessão

    Previsão horária em Veselovo

    Hoje, 26 Abril, Sexta-feira

    Tempo Temperatura Precipitação Vento Pressão Humidade
    00:00 +13°C° 0 mm 2 m/s 749 mmHg 56%
    01:00 +12°C° 0 mm 2 m/s 749 mmHg 57%
    02:00 +10°C° 0 mm 1 m/s 749 mmHg 60%
    03:00 +10°C° 0 mm 1 m/s 749 mmHg 62%
    04:00 +9°C° 0 mm 2 m/s 749 mmHg 64%
    05:00 +9°C° 0 mm 2 m/s 749 mmHg 65%
    06:00 +12°C° 0 mm 2 m/s 749 mmHg 62%
    07:00 +14°C° 0 mm 2 m/s 749 mmHg 59%
    08:00 +16°C° 0 mm 2 m/s 748 mmHg 55%
    09:00 +17°C° 0 mm 3 m/s 748 mmHg 50%
    10:00 +19°C° 0 mm 3 m/s 748 mmHg 46%
    11:00 +21°C° 0 mm 4 m/s 748 mmHg 41%
    12:00 +21°C° 0 mm 3 m/s 748 mmHg 40%
    13:00 +22°C° 0 mm 3 m/s 747 mmHg 39%
    14:00 +22°C° 0 mm 3 m/s 747 mmHg 38%
    15:00 +22°C° 0 mm 3 m/s 747 mmHg 40%
    16:00 +22°C° 0 mm 3 m/s 746 mmHg 42%
    17:00 +22°C° 0 mm 3 m/s 746 mmHg 43%
    18:00 +20°C° 0 mm 3 m/s 746 mmHg 50%
    19:00 +18°C° 0 mm 2 m/s 746 mmHg 58%
    20:00 +16°C° 0 mm 2 m/s 745 mmHg 65%
    21:00 +15°C° 0 mm 2 m/s 745 mmHg 67%
    22:00 +15°C° 0 mm 2 m/s 745 mmHg 69%
    23:00 +13°C° 0 mm 3 m/s 745 mmHg 70%

    Amanhã, 27 Abril, Sábado

    Tempo Temperatura Precipitação Vento Pressão Humidade
    00:00 +14°C° 0 mm 2 m/s 744 mmHg 71%
    01:00 +13°C° 0 mm 2 m/s 744 mmHg 72%
    02:00 +12°C° 0 mm 2 m/s 744 mmHg 72%
    03:00 +12°C° 0 mm 2 m/s 744 mmHg 73%
    04:00 +12°C° 0 mm 2 m/s 743 mmHg 75%
    05:00 +10°C° 0 mm 2 m/s 743 mmHg 76%
    06:00 +13°C° 0 mm 2 m/s 743 mmHg 72%
    07:00 +15°C° 0 mm 2 m/s 743 mmHg 69%
    08:00 +16°C° 0 mm 2 m/s 742 mmHg 65%
    09:00 +18°C° 0 mm 3 m/s 742 mmHg 61%
    10:00 +20°C° 0 mm 3 m/s 742 mmHg 58%
    11:00 +22°C° 0 mm 3 m/s 742 mmHg 54%
    12:00 +22°C° 0.1 mm 3 m/s 741 mmHg 52%
    13:00 +24°C° 0.1 mm 2 m/s 741 mmHg 50%
    14:00 +25°C° 0.1 mm 2 m/s 741 mmHg 48%
    15:00 +24°C° 0.4 mm 2 m/s 740 mmHg 51%
    16:00 +24°C° 0.4 mm 2 m/s 740 mmHg 54%
    17:00 +23°C° 0.4 mm 2 m/s 740 mmHg 56%
    18:00 +20°C° 0.1 mm 2 m/s 740 mmHg 64%
    19:00 +19°C° 0.1 mm 2 m/s 740 mmHg 71%
    20:00 +17°C° 0.1 mm 2 m/s 740 mmHg 78%
    21:00 +16°C° 0.1 mm 2 m/s 740 mmHg 81%
    22:00 +15°C° 0.1 mm 2 m/s 740 mmHg 84%
    23:00 +15°C° 0.1 mm 2 m/s 740 mmHg 87%

    Depois de amanhã, 28 Abril, Domingo

    Tempo Temperatura Precipitação Vento Pressão Humidade
    00:00 +14°C° 0 mm 2 m/s 740 mmHg 88%
    01:00 +14°C° 0 mm 2 m/s 740 mmHg 89%
    02:00 +13°C° 0 mm 2 m/s 740 mmHg 91%
    03:00 +13°C° 0 mm 2 m/s 740 mmHg 90%
    04:00 +12°C° 0 mm 2 m/s 740 mmHg 89%
    05:00 +12°C° 0 mm 2 m/s 741 mmHg 88%
    06:00 +13°C° 0 mm 3 m/s 741 mmHg 81%
    07:00 +14°C° 0 mm 3 m/s 741 mmHg 74%
    08:00 +15°C° 0 mm 4 m/s 742 mmHg 67%
    09:00 +17°C° 0 mm 4 m/s 742 mmHg 64%
    10:00 +17°C° 0 mm 5 m/s 743 mmHg 61%
    11:00 +19°C° 0 mm 6 m/s 743 mmHg 59%
    12:00 +20°C° 0 mm 6 m/s 743 mmHg 57%
    13:00 +20°C° 0 mm 6 m/s 743 mmHg 56%
    14:00 +20°C° 0 mm 6 m/s 744 mmHg 54%
    15:00 +19°C° 0 mm 6 m/s 744 mmHg 54%
    16:00 +19°C° 0 mm 6 m/s 744 mmHg 54%
    17:00 +17°C° 0 mm 6 m/s 744 mmHg 54%
    18:00 +15°C° 0 mm 5 m/s 745 mmHg 54%
    19:00 +13°C° 0 mm 5 m/s 746 mmHg 54%
    20:00 +12°C° 0 mm 5 m/s 746 mmHg 54%
    21:00 +10°C° 0 mm 5 m/s 747 mmHg 53%
    22:00 +8°C° 0 mm 5 m/s 747 mmHg 51%
    23:00 +7°C° 0 mm 5 m/s 748 mmHg 50%

    29 Abril, Segunda-feira

    Tempo Temperatura Precipitação Vento Pressão Humidade
    00:00 +6°C° 0 mm 5 m/s 748 mmHg 51%
    01:00 +5°C° 0 mm 4 m/s 748 mmHg 53%
    02:00 +5°C° 0 mm 4 m/s 749 mmHg 54%
    03:00 +4°C° 0 mm 4 m/s 749 mmHg 56%
    04:00 +4°C° 0 mm 4 m/s 749 mmHg 59%
    05:00 +3°C° 0 mm 4 m/s 749 mmHg 61%
    06:00 +4°C° 0 mm 4 m/s 749 mmHg 59%
    07:00 +5°C° 0 mm 5 m/s 749 mmHg 56%
    08:00 +6°C° 0 mm 5 m/s 750 mmHg 53%
    09:00 +8°C° 0 mm 5 m/s 750 mmHg 50%
    10:00 +9°C° 0 mm 5 m/s 750 mmHg 46%
    11:00 +10°C° 0 mm 5 m/s 750 mmHg 42%
    12:00 +12°C° 0 mm 5 m/s 749 mmHg 42%
    13:00 +12°C° 0 mm 5 m/s 749 mmHg 41%
    14:00 +13°C° 0 mm 5 m/s 749 mmHg 40%
    15:00 +13°C° 0 mm 5 m/s 749 mmHg 41%
    16:00 +12°C° 0 mm 5 m/s 748 mmHg 41%
    17:00 +12°C° 0 mm 4 m/s 748 mmHg 42%
    18:00 +11°C° 0 mm 4 m/s 748 mmHg 47%
    19:00 +9°C° 0 mm 3 m/s 748 mmHg 52%
    20:00 +7°C° 0 mm 2 m/s 748 mmHg 57%
    21:00 +7°C° 0 mm 2 m/s 748 mmHg 58%
    22:00 +6°C° 0 mm 2 m/s 749 mmHg 59%
    23:00 +5°C° 0 mm 2 m/s 749 mmHg 60%

    30 Abril, Terça-feira

    Tempo Temperatura Precipitação Vento Pressão Humidade
    00:00 +5°C° 0 mm 2 m/s 748 mmHg 61%
    01:00 +4°C° 0 mm 2 m/s 748 mmHg 62%
    02:00 +4°C° 0 mm 2 m/s 748 mmHg 64%
    03:00 +3°C° 0 mm 2 m/s 748 mmHg 65%
    04:00 +3°C° 0 mm 2 m/s 748 mmHg 67%
    05:00 +3°C° 0 mm 2 m/s 748 mmHg 69%
    06:00 +5°C° 0 mm 2 m/s 748 mmHg 63%
    07:00 +7°C° 0 mm 2 m/s 748 mmHg 56%
    08:00 +9°C° 0 mm 3 m/s 748 mmHg 50%
    09:00 +10°C° 0 mm 3 m/s 747 mmHg 46%
    10:00 +11°C° 0 mm 3 m/s 747 mmHg 41%
    11:00 +12°C° 0 mm 4 m/s 747 mmHg 37%
    12:00 +13°C° 0 mm 3 m/s 747 mmHg 36%
    13:00 +13°C° 0 mm 3 m/s 746 mmHg 35%
    14:00 +14°C° 0 mm 3 m/s 746 mmHg 34%
    15:00 +14°C° 0 mm 3 m/s 745 mmHg 35%
    16:00 +13°C° 0 mm 3 m/s 745 mmHg 36%
    17:00 +14°C° 0 mm 2 m/s 745 mmHg 36%
    18:00 +13°C° 0 mm 2 m/s 745 mmHg 42%
    19:00 +11°C° 0 mm 1 m/s 745 mmHg 47%
    20:00 +9°C° 0 mm 1 m/s 745 mmHg 53%
    21:00 +9°C° 0 mm 1 m/s 745 mmHg 54%
    22:00 +7°C° 0 mm 0 m/s 744 mmHg 55%
    23:00 +7°C° 0 mm 0 m/s 744 mmHg 56%

    1 Maio, Quarta-feira

    Tempo Temperatura Precipitação Vento Pressão Humidade
    00:00 +6°C° 0 mm 0 m/s 744 mmHg 57%
    01:00 +7°C° 0 mm 1 m/s 744 mmHg 58%
    02:00 +6°C° 0 mm 1 m/s 744 mmHg 60%
    03:00 +6°C° 0 mm 1 m/s 744 mmHg 60%
    04:00 +7°C° 0 mm 1 m/s 744 mmHg 60%
    05:00 +7°C° 0 mm 1 m/s 744 mmHg 60%
    06:00 +7°C° 0 mm 2 m/s 744 mmHg 57%
    07:00 +8°C° 0 mm 2 m/s 743 mmHg 54%
    08:00 +9°C° 0 mm 2 m/s 743 mmHg 52%
    09:00 +12°C° 0 mm 2 m/s 743 mmHg 46%
    10:00 +14°C° 0 mm 1 m/s 743 mmHg 40%
    11:00 +15°C° 0 mm 1 m/s 743 mmHg 34%
    12:00 +15°C° 0 mm 1 m/s 743 mmHg 35%
    13:00 +15°C° 0 mm 1 m/s 742 mmHg 35%
    14:00 +15°C° 0 mm 1 m/s 742 mmHg 36%
    15:00 +14°C° 0 mm 0 m/s 742 mmHg 36%
    16:00 +13°C° 0 mm 0 m/s 741 mmHg 37%
    17:00 +13°C° 0 mm 0 m/s 741 mmHg 38%
    18:00 +12°C° 0 mm 0 m/s 741 mmHg 41%
    19:00 +11°C° 0 mm 0 m/s 741 mmHg 45%
    20:00 +10°C° 0 mm 0 m/s 740 mmHg 48%
    21:00 +10°C° 0 mm 0 m/s 740 mmHg 50%
    22:00 +10°C° 0 mm 1 m/s 740 mmHg 52%
    23:00 +10°C° 0 mm 1 m/s 739 mmHg 54%
    Mostrar mais